ETD378 OMAA-VRMM

Flight info

Callsign ETD378
Flight time 3h 33m
Altitude 39000
Route KANIP N318 TOLDA P570 KITAL L894 LELEM LELEM2B
Aircraft A35K/H-SDE2E3GHIJ3J4J5LM1ORWXY/LB1D1

Departure

Time 2026-05-05 09:53
Airport Zayed International Airport (OMAA)

Arrival

Time 2026-05-05 13:26
Airport Velana International Airport (VRMM)
Time Latitude Longitude Altitude Speed Heading
2026-05-05 09:35 24.44985 54.64731 86 ft 0 kts 26°
2026-05-05 09:43 24.44971 54.64723 87 ft 3 kts 26°
2026-05-05 09:43 24.44955 54.64715 83 ft 3 kts 26°
2026-05-05 09:44 24.44939 54.64706 86 ft 3 kts 26°
2026-05-05 09:44 24.44923 54.64696 86 ft 3 kts 34°
2026-05-05 09:44 24.44909 54.64681 86 ft 3 kts 70°
2026-05-05 09:44 24.44906 54.64667 85 ft 3 kts 94°
2026-05-05 09:45 24.44906 54.64664 85 ft 0 kts 100°
2026-05-05 09:46 24.44905 54.64666 85 ft 1 kts 103°
2026-05-05 09:46 24.44884 54.64710 87 ft 10 kts 125°
2026-05-05 09:47 24.44838 54.64778 85 ft 12 kts 127°
2026-05-05 09:47 24.44781 54.64856 87 ft 14 kts 133°
2026-05-05 09:47 24.44704 54.64864 84 ft 12 kts 201°
2026-05-05 09:47 24.44630 54.64802 86 ft 16 kts 219°
2026-05-05 09:48 24.44536 54.64721 87 ft 19 kts 218°
2026-05-05 09:48 24.44426 54.64627 87 ft 22 kts 218°
2026-05-05 09:48 24.44300 54.64519 86 ft 22 kts 218°
2026-05-05 09:48 24.44224 54.64385 87 ft 21 kts 220°
2026-05-05 09:49 24.44138 54.64413 87 ft 15 kts 129°
2026-05-05 09:49 24.44056 54.64529 86 ft 23 kts 128°
2026-05-05 09:49 24.43943 54.64687 87 ft 29 kts 128°
2026-05-05 09:49 24.43818 54.64863 87 ft 30 kts 128°
2026-05-05 09:50 24.43687 54.65049 83 ft 31 kts 128°
2026-05-05 09:50 24.43553 54.65238 87 ft 32 kts 128°
2026-05-05 09:50 24.43414 54.65431 86 ft 33 kts 128°
2026-05-05 09:50 24.43273 54.65630 87 ft 33 kts 128°
2026-05-05 09:51 24.43137 54.65821 87 ft 23 kts 128°
2026-05-05 09:51 24.43072 54.65902 87 ft 12 kts 154°
2026-05-05 09:51 24.42988 54.65897 85 ft 13 kts 166°
2026-05-05 09:51 24.42902 54.65991 87 ft 22 kts 128°
2026-05-05 09:52 24.42806 54.66127 86 ft 23 kts 127°
2026-05-05 09:52 24.42718 54.66198 87 ft 11 kts 194°
2026-05-05 09:52 24.42651 54.66150 87 ft 12 kts 218°
2026-05-05 09:52 24.42617 54.66092 89 ft 8 kts 268°
2026-05-05 09:53 24.42709 54.65960 88 ft 54 kts 308°
2026-05-05 09:53 24.43097 54.65412 88 ft 123 kts 308°
2026-05-05 09:53 24.43750 54.64492 94 ft 180 kts 307°
2026-05-05 09:53 24.44504 54.63415 802 ft 176 kts 308°
2026-05-05 09:54 24.45262 54.62344 1460 ft 179 kts 308°
2026-05-05 09:54 24.46089 54.61213 1689 ft 201 kts 308°
2026-05-05 09:54 24.47000 54.59935 1939 ft 222 kts 308°
2026-05-05 09:54 24.47973 54.58558 2409 ft 231 kts 308°
2026-05-05 09:55 24.48963 54.57156 3001 ft 236 kts 308°
2026-05-05 09:55 24.50155 54.55844 3373 ft 254 kts 325°
2026-05-05 09:55 24.51830 54.55122 3854 ft 264 kts 356°
2026-05-05 09:55 24.53598 54.55528 4593 ft 263 kts 30°
2026-05-05 09:56 24.54871 54.56960 5292 ft 269 kts 62°
2026-05-05 09:56 24.55243 54.58983 5874 ft 280 kts 94°
2026-05-05 09:56 24.54583 54.61007 6466 ft 287 kts 121°
2026-05-05 09:56 24.53274 54.62682 7083 ft 293 kts 139°
2026-05-05 09:57 24.51528 54.63852 7783 ft 297 kts 157°
2026-05-05 09:57 24.49523 54.64442 8425 ft 303 kts 167°
2026-05-05 09:57 24.47721 54.65674 8787 ft 312 kts 127°
2026-05-05 09:57 24.46595 54.67686 9610 ft 306 kts 112°
2026-05-05 09:58 24.45693 54.69786 10424 ft 305 kts 113°
2026-05-05 09:58 24.44781 54.71906 11115 ft 310 kts 114°
2026-05-05 09:58 24.43928 54.74134 11488 ft 326 kts 110°
2026-05-05 09:58 24.43066 54.76517 11825 ft 343 kts 111°
2026-05-05 09:59 24.42163 54.79004 12138 ft 358 kts 111°
2026-05-05 09:59 24.41224 54.81594 12442 ft 372 kts 111°
2026-05-05 09:59 24.40252 54.84278 12713 ft 385 kts 111°
2026-05-05 09:59 24.39250 54.87045 13066 ft 394 kts 111°
2026-05-05 10:00 24.38231 54.89858 13556 ft 399 kts 111°
2026-05-05 10:00 24.37201 54.92702 13980 ft 404 kts 111°
2026-05-05 10:00 24.36158 54.95578 14448 ft 407 kts 111°
2026-05-05 10:00 24.35108 54.98475 14939 ft 410 kts 111°
2026-05-05 10:01 24.34051 55.01387 15441 ft 413 kts 111°
2026-05-05 10:01 24.32984 55.04325 15957 ft 415 kts 111°
2026-05-05 10:01 24.31785 55.07220 16484 ft 418 kts 118°
2026-05-05 10:01 24.30379 55.10025 16989 ft 421 kts 120°
2026-05-05 10:02 24.28933 55.12827 17515 ft 424 kts 120°
2026-05-05 10:02 24.27477 55.15648 18030 ft 427 kts 120°
2026-05-05 10:02 24.26012 55.18493 18483 ft 430 kts 120°
2026-05-05 10:02 24.24540 55.21353 18923 ft 433 kts 120°
2026-05-05 10:03 24.23074 55.24202 19348 ft 436 kts 120°
2026-05-05 10:03 24.21578 55.27110 19817 ft 440 kts 120°
2026-05-05 10:03 24.20071 55.30037 20241 ft 443 kts 120°
2026-05-05 10:03 24.18553 55.32990 20706 ft 447 kts 120°
2026-05-05 10:04 24.17127 55.36074 21169 ft 450 kts 116°
2026-05-05 10:04 24.15858 55.39172 21616 ft 454 kts 114°
2026-05-05 10:04 24.14632 55.42367 22059 ft 457 kts 113°
2026-05-05 10:04 24.13422 55.45599 22511 ft 460 kts 113°
2026-05-05 10:05 24.12206 55.48853 22955 ft 464 kts 113°
2026-05-05 10:05 24.10973 55.52125 23388 ft 467 kts 113°
2026-05-05 10:05 24.09720 55.55419 23720 ft 471 kts 113°
2026-05-05 10:05 24.08447 55.58739 24062 ft 474 kts 114°
2026-05-05 10:06 24.07161 55.62075 24406 ft 478 kts 114°
2026-05-05 10:06 24.05859 55.65440 24779 ft 481 kts 114°
2026-05-05 10:06 24.04445 55.68770 25171 ft 484 kts 118°
2026-05-05 10:06 24.02882 55.72046 25577 ft 488 kts 120°
2026-05-05 10:07 24.01255 55.75311 25977 ft 491 kts 120°
2026-05-05 10:07 23.99607 55.78603 26397 ft 495 kts 120°
2026-05-05 10:07 23.97962 55.81926 26824 ft 499 kts 120°
2026-05-05 10:07 23.96323 55.85285 27235 ft 503 kts 119°
2026-05-05 10:08 23.94686 55.88678 27628 ft 507 kts 119°
2026-05-05 10:08 23.93043 55.92105 28046 ft 511 kts 119°
2026-05-05 10:08 23.91393 55.95557 28436 ft 514 kts 119°
2026-05-05 10:08 23.89732 55.99035 28829 ft 518 kts 119°
2026-05-05 10:09 23.88058 56.02536 29218 ft 522 kts 119°
2026-05-05 10:09 23.86372 56.06070 29553 ft 525 kts 119°
2026-05-05 10:09 23.84674 56.09615 29925 ft 529 kts 119°
2026-05-05 10:09 23.82963 56.13181 30219 ft 532 kts 119°
2026-05-05 10:10 23.81235 56.16775 30496 ft 536 kts 119°
2026-05-05 10:10 23.79499 56.20385 30794 ft 538 kts 119°
2026-05-05 10:10 23.77762 56.23994 31200 ft 537 kts 119°
2026-05-05 10:10 23.76025 56.27603 31606 ft 537 kts 119°
2026-05-05 10:11 23.74286 56.31215 32000 ft 537 kts 119°
2026-05-05 10:11 23.72546 56.34825 32339 ft 538 kts 119°
2026-05-05 10:11 23.70802 56.38442 32698 ft 538 kts 119°
2026-05-05 10:11 23.69059 56.42052 33076 ft 538 kts 119°
2026-05-05 10:12 23.67316 56.45661 33493 ft 537 kts 119°
2026-05-05 10:12 23.65597 56.49217 33876 ft 536 kts 119°
2026-05-05 10:12 23.63834 56.52862 34180 ft 536 kts 120°
2026-05-05 10:12 23.62098 56.56448 34500 ft 535 kts 120°
2026-05-05 10:13 23.60362 56.60030 34834 ft 534 kts 120°
2026-05-05 10:13 23.58627 56.63609 35143 ft 534 kts 120°
2026-05-05 10:13 23.56917 56.67134 35461 ft 533 kts 120°
2026-05-05 10:13 23.55182 56.70705 35780 ft 532 kts 120°
2026-05-05 10:14 23.53430 56.74311 36079 ft 531 kts 120°
2026-05-05 10:14 23.51728 56.77811 36366 ft 530 kts 120°
2026-05-05 10:14 23.50000 56.81362 36683 ft 528 kts 120°
2026-05-05 10:14 23.48284 56.84885 37090 ft 525 kts 120°
2026-05-05 10:15 23.46576 56.88391 37402 ft 524 kts 120°
2026-05-05 10:15 23.44868 56.91894 37672 ft 523 kts 120°
2026-05-05 10:15 23.43160 56.95394 37953 ft 523 kts 120°
2026-05-05 10:15 23.41457 56.98882 38243 ft 521 kts 121°
2026-05-05 10:16 23.39756 57.02361 38462 ft 521 kts 121°
2026-05-05 10:16 23.38055 57.05839 38686 ft 520 kts 121°
2026-05-05 10:16 23.36368 57.09326 38832 ft 521 kts 120°
2026-05-05 10:16 23.34741 57.12857 38852 ft 523 kts 118°
2026-05-05 10:17 23.31560 57.19985 38858 ft 524 kts 118°
2026-05-05 10:17 23.28378 57.27105 38862 ft 523 kts 118°
2026-05-05 10:18 23.25174 57.34191 38868 ft 522 kts 118°
2026-05-05 10:18 23.21951 57.41271 38870 ft 523 kts 119°
2026-05-05 10:19 23.18722 57.48348 38868 ft 523 kts 118°
2026-05-05 10:19 23.15491 57.55426 38861 ft 523 kts 119°
2026-05-05 10:20 23.12258 57.62501 38858 ft 522 kts 118°
2026-05-05 10:20 23.09034 57.69545 38859 ft 521 kts 118°
2026-05-05 10:21 23.05805 57.76590 38844 ft 521 kts 118°
2026-05-05 10:21 23.02573 57.83631 38833 ft 521 kts 118°
2026-05-05 10:22 22.99339 57.90669 38830 ft 521 kts 118°
2026-05-05 10:22 22.96101 57.97695 38819 ft 521 kts 118°
2026-05-05 10:23 22.92856 58.04726 38815 ft 520 kts 118°
2026-05-05 10:23 22.89614 58.11743 38814 ft 520 kts 118°
2026-05-05 10:24 22.86373 58.18750 38808 ft 520 kts 118°
2026-05-05 10:24 22.83128 58.25754 38803 ft 520 kts 118°
2026-05-05 10:25 22.79877 58.32761 38805 ft 520 kts 118°
2026-05-05 10:25 22.76622 58.39769 38798 ft 520 kts 118°
2026-05-05 10:26 22.73373 58.46752 38799 ft 518 kts 118°
2026-05-05 10:26 22.70127 58.53718 38799 ft 518 kts 118°
2026-05-05 10:27 22.66125 58.60129 38798 ft 512 kts 136°
2026-05-05 10:27 22.60657 58.64843 38800 ft 504 kts 150°
2026-05-05 10:28 22.54688 58.68839 38809 ft 504 kts 152°
2026-05-05 10:28 22.48671 58.72727 38800 ft 503 kts 152°
2026-05-05 10:29 22.42675 58.76628 38816 ft 503 kts 152°
2026-05-05 10:29 22.37696 58.79894 38802 ft 503 kts 152°
2026-05-05 10:30 22.31713 58.83826 38806 ft 503 kts 151°
2026-05-05 10:30 22.25735 58.87753 38814 ft 502 kts 151°
2026-05-05 10:31 22.19764 58.91667 38817 ft 502 kts 151°
2026-05-05 10:31 22.13793 58.95578 38816 ft 502 kts 151°
2026-05-05 10:32 22.07821 58.99488 38808 ft 502 kts 151°
2026-05-05 10:32 22.01846 59.03394 38809 ft 502 kts 151°
2026-05-05 10:33 21.95863 59.07301 38810 ft 503 kts 151°
2026-05-05 10:33 21.89870 59.11212 38816 ft 504 kts 151°
2026-05-05 10:34 21.83878 59.15119 38816 ft 504 kts 151°
2026-05-05 10:34 21.77894 59.19015 38816 ft 502 kts 151°
2026-05-05 10:35 21.71927 59.22896 38818 ft 501 kts 151°
2026-05-05 10:35 21.65962 59.26773 38804 ft 501 kts 151°
2026-05-05 10:36 21.59995 59.30647 38811 ft 501 kts 151°
2026-05-05 10:36 21.54028 59.34521 38812 ft 500 kts 150°
2026-05-05 10:37 21.48077 59.38380 38804 ft 499 kts 150°
2026-05-05 10:37 21.42126 59.42234 38799 ft 499 kts 150°
2026-05-05 10:38 21.36177 59.46084 38801 ft 499 kts 150°
2026-05-05 10:38 21.30227 59.49931 38809 ft 499 kts 150°
2026-05-05 10:39 21.24279 59.53775 38806 ft 499 kts 150°
2026-05-05 10:39 21.18337 59.57613 38808 ft 499 kts 150°
2026-05-05 10:40 21.12385 59.61444 38804 ft 499 kts 150°
2026-05-05 10:40 21.06434 59.65273 38801 ft 500 kts 150°
2026-05-05 10:41 21.00470 59.69109 38800 ft 500 kts 150°
2026-05-05 10:41 20.94505 59.72947 38812 ft 500 kts 150°
2026-05-05 10:42 20.85557 59.78681 38809 ft 500 kts 150°
2026-05-05 10:43 20.79595 59.82499 38797 ft 499 kts 150°
2026-05-05 10:43 20.73642 59.86309 38806 ft 499 kts 150°
2026-05-05 10:44 20.67683 59.90119 38807 ft 499 kts 150°
2026-05-05 10:44 20.61715 59.93932 38808 ft 500 kts 150°
2026-05-05 10:45 20.55739 59.97747 38797 ft 500 kts 150°
2026-05-05 10:45 20.49770 60.01554 38804 ft 500 kts 150°
2026-05-05 10:46 20.43805 60.05354 38810 ft 499 kts 150°
2026-05-05 10:46 20.37852 60.09144 38807 ft 499 kts 150°
2026-05-05 10:47 20.31891 60.12935 38816 ft 500 kts 150°
2026-05-05 10:47 20.25925 60.16725 38814 ft 499 kts 150°
2026-05-05 10:48 20.19958 60.20513 38809 ft 500 kts 150°
2026-05-05 10:48 20.13968 60.24313 38813 ft 501 kts 150°
2026-05-05 10:49 20.07989 60.28101 38809 ft 500 kts 150°
2026-05-05 10:49 20.02396 60.32493 38809 ft 500 kts 140°
2026-05-05 10:50 19.97167 60.37378 38815 ft 501 kts 139°
2026-05-05 10:50 19.91979 60.42346 38812 ft 503 kts 139°
2026-05-05 10:51 19.86783 60.47314 38815 ft 502 kts 139°
2026-05-05 10:51 19.81585 60.52257 38811 ft 502 kts 139°
2026-05-05 10:52 19.76377 60.57196 38819 ft 503 kts 139°
2026-05-05 10:52 19.71161 60.62136 38816 ft 502 kts 139°
2026-05-05 10:53 19.65959 60.67060 38819 ft 501 kts 139°
2026-05-05 10:53 19.60757 60.71981 38819 ft 501 kts 139°
2026-05-05 10:54 19.55546 60.76905 38820 ft 502 kts 139°
2026-05-05 10:54 19.50335 60.81824 38817 ft 501 kts 139°
2026-05-05 10:55 19.45127 60.86737 38820 ft 501 kts 139°
2026-05-05 10:55 19.39911 60.91652 38822 ft 503 kts 139°
2026-05-05 10:56 19.34691 60.96567 38811 ft 502 kts 139°
2026-05-05 10:56 19.29475 61.01473 38819 ft 501 kts 139°
2026-05-05 10:57 19.24265 61.06370 38821 ft 501 kts 139°
2026-05-05 10:57 19.19047 61.11271 38815 ft 501 kts 139°
2026-05-05 10:58 19.13839 61.16157 38817 ft 500 kts 139°
2026-05-05 10:58 19.08629 61.21041 38824 ft 500 kts 139°
2026-05-05 10:59 19.03413 61.25926 38829 ft 501 kts 139°
2026-05-05 10:59 18.98198 61.30805 38828 ft 500 kts 139°
2026-05-05 11:00 18.93004 61.35662 38823 ft 499 kts 139°
2026-05-05 11:00 18.87793 61.40530 38828 ft 501 kts 139°
2026-05-05 11:01 18.82572 61.45402 38829 ft 500 kts 139°
2026-05-05 11:01 18.77361 61.50261 38817 ft 499 kts 139°
2026-05-05 11:02 18.72158 61.55110 38829 ft 499 kts 139°
2026-05-05 11:02 18.66958 61.59951 38831 ft 499 kts 139°
2026-05-05 11:03 18.61754 61.64791 38821 ft 498 kts 139°
2026-05-05 11:03 18.56556 61.69621 38827 ft 498 kts 139°
2026-05-05 11:04 18.51357 61.74449 38826 ft 498 kts 139°
2026-05-05 11:04 18.46154 61.79276 38833 ft 498 kts 139°
2026-05-05 11:05 18.40961 61.84090 38829 ft 497 kts 139°
2026-05-05 11:05 18.35771 61.88897 38833 ft 497 kts 139°
2026-05-05 11:06 18.30570 61.93710 38826 ft 498 kts 139°
2026-05-05 11:06 18.25375 61.98514 38831 ft 497 kts 139°
2026-05-05 11:07 18.20182 62.03311 38832 ft 496 kts 139°
2026-05-05 11:07 18.14995 62.08100 38832 ft 496 kts 139°
2026-05-05 11:08 18.09809 62.12884 38833 ft 496 kts 139°
2026-05-05 11:08 18.04625 62.17662 38831 ft 495 kts 139°
2026-05-05 11:09 17.99440 62.22436 38834 ft 496 kts 139°
2026-05-05 11:09 17.94253 62.27209 38836 ft 496 kts 139°
2026-05-05 11:10 17.89067 62.31977 38841 ft 495 kts 139°
2026-05-05 11:10 17.84760 62.35934 38841 ft 495 kts 139°
2026-05-05 11:11 17.79580 62.40689 38835 ft 495 kts 139°
2026-05-05 11:11 17.74391 62.45449 38826 ft 495 kts 139°
2026-05-05 11:12 17.69204 62.50203 38842 ft 495 kts 139°
2026-05-05 11:12 17.64018 62.54952 38841 ft 495 kts 139°
2026-05-05 11:13 17.58837 62.59694 38837 ft 495 kts 139°
2026-05-05 11:13 17.53650 62.64437 38839 ft 494 kts 139°
2026-05-05 11:14 17.48470 62.69170 38841 ft 494 kts 139°
2026-05-05 11:14 17.43283 62.73905 38840 ft 494 kts 139°
2026-05-05 11:15 17.38098 62.78634 38845 ft 495 kts 139°
2026-05-05 11:15 17.32906 62.83367 38841 ft 495 kts 139°
2026-05-05 11:16 17.27722 62.88089 38844 ft 494 kts 139°
2026-05-05 11:16 17.22543 62.92803 38843 ft 494 kts 139°
2026-05-05 11:17 17.17356 62.97520 38844 ft 494 kts 139°
2026-05-05 11:17 17.12175 63.02228 38850 ft 494 kts 139°
2026-05-05 11:18 17.06991 63.06934 38845 ft 494 kts 139°
2026-05-05 11:18 17.01801 63.11643 38850 ft 494 kts 139°
2026-05-05 11:19 16.96575 63.16294 38845 ft 494 kts 140°
2026-05-05 11:19 16.91278 63.20851 38846 ft 493 kts 140°
2026-05-05 11:20 16.85983 63.25405 38844 ft 493 kts 140°
2026-05-05 11:20 16.80708 63.29965 38848 ft 493 kts 140°
2026-05-05 11:21 16.75427 63.34538 38848 ft 493 kts 140°
2026-05-05 11:21 16.70150 63.39107 38847 ft 493 kts 140°
2026-05-05 11:22 16.64870 63.43673 38845 ft 493 kts 140°
2026-05-05 11:22 16.59593 63.48232 38848 ft 492 kts 140°
2026-05-05 11:23 16.54322 63.52783 38852 ft 492 kts 140°
2026-05-05 11:23 16.49052 63.57330 38848 ft 492 kts 140°
2026-05-05 11:24 16.43742 63.61907 38846 ft 492 kts 140°
2026-05-05 11:24 16.38465 63.66454 38849 ft 492 kts 140°
2026-05-05 11:25 16.33155 63.71025 38848 ft 492 kts 140°
2026-05-05 11:25 16.27913 63.75534 38851 ft 492 kts 140°
2026-05-05 11:26 16.22608 63.80095 38843 ft 491 kts 140°
2026-05-05 11:26 16.17339 63.84620 38848 ft 491 kts 140°
2026-05-05 11:27 16.12071 63.89142 38850 ft 491 kts 140°
2026-05-05 11:27 16.06802 63.93662 38847 ft 491 kts 140°
2026-05-05 11:28 16.01528 63.98182 38852 ft 491 kts 140°
2026-05-05 11:28 15.96296 64.02664 38852 ft 491 kts 140°
2026-05-05 11:29 15.90987 64.07209 38847 ft 491 kts 140°
2026-05-05 11:29 15.85717 64.11716 38846 ft 491 kts 140°
2026-05-05 11:30 15.80438 64.16228 38853 ft 491 kts 140°
2026-05-05 11:30 15.75159 64.20737 38846 ft 491 kts 140°
2026-05-05 11:31 15.69912 64.25216 38850 ft 492 kts 140°
2026-05-05 11:31 15.64596 64.29751 38848 ft 492 kts 140°
2026-05-05 11:32 15.59345 64.34227 38853 ft 492 kts 140°
2026-05-05 11:32 15.54030 64.38754 38858 ft 492 kts 140°
2026-05-05 11:33 15.48732 64.43264 38848 ft 492 kts 140°
2026-05-05 11:33 15.43439 64.47766 38852 ft 492 kts 140°
2026-05-05 11:34 15.38146 64.52265 38857 ft 492 kts 140°
2026-05-05 11:34 15.32851 64.56763 38859 ft 492 kts 140°
2026-05-05 11:35 15.27558 64.61256 38858 ft 492 kts 140°
2026-05-05 11:35 15.22258 64.65753 38854 ft 492 kts 140°
2026-05-05 11:36 15.16963 64.70242 38856 ft 492 kts 140°
2026-05-05 11:36 15.11699 64.74701 38854 ft 492 kts 140°
2026-05-05 11:37 15.06372 64.79211 38858 ft 492 kts 140°
2026-05-05 11:37 15.01109 64.83664 38858 ft 492 kts 140°
2026-05-05 11:38 14.95807 64.88147 38857 ft 492 kts 140°
2026-05-05 11:38 14.90510 64.92622 38855 ft 492 kts 140°
2026-05-05 11:39 14.85212 64.97097 38856 ft 491 kts 140°
2026-05-05 11:39 14.79883 65.01593 38858 ft 491 kts 140°
2026-05-05 11:40 14.74589 65.06057 38862 ft 491 kts 140°
2026-05-05 11:40 14.69296 65.10518 38863 ft 491 kts 140°
2026-05-05 11:41 14.64000 65.14979 38856 ft 491 kts 140°
2026-05-05 11:41 14.58699 65.19441 38854 ft 491 kts 140°
2026-05-05 11:42 14.53405 65.23894 38857 ft 490 kts 140°
2026-05-05 11:42 14.48119 65.28332 38863 ft 490 kts 140°
2026-05-05 11:43 14.42836 65.32766 38859 ft 490 kts 140°
2026-05-05 11:43 14.37542 65.37208 38864 ft 491 kts 140°
2026-05-05 11:44 14.32242 65.41652 38864 ft 491 kts 140°
2026-05-05 11:44 14.26984 65.46058 38863 ft 490 kts 140°
2026-05-05 11:45 14.21662 65.50514 38862 ft 489 kts 140°
2026-05-05 11:45 14.16384 65.54932 38862 ft 489 kts 140°
2026-05-05 11:46 14.11111 65.59342 38858 ft 488 kts 140°
2026-05-05 11:46 14.05839 65.63749 38858 ft 488 kts 140°
2026-05-05 11:47 14.00558 65.68161 38861 ft 489 kts 140°
2026-05-05 11:47 13.95277 65.72570 38855 ft 490 kts 140°
2026-05-05 11:48 13.87341 65.79190 38854 ft 489 kts 140°
2026-05-05 11:48 13.82054 65.83597 38855 ft 489 kts 140°
2026-05-05 11:49 13.77661 65.87257 38859 ft 489 kts 140°
2026-05-05 11:49 13.72371 65.91663 38858 ft 489 kts 140°
2026-05-05 11:50 13.67069 65.96074 38861 ft 490 kts 140°
2026-05-05 11:50 13.61783 66.00470 38852 ft 489 kts 140°
2026-05-05 11:51 13.56502 66.04860 38857 ft 488 kts 140°
2026-05-05 11:51 13.51229 66.09240 38857 ft 488 kts 140°
2026-05-05 11:52 13.45945 66.13627 38859 ft 488 kts 141°
2026-05-05 11:52 13.40656 66.18015 38853 ft 489 kts 140°
2026-05-05 11:53 13.35371 66.22398 38848 ft 488 kts 141°
2026-05-05 11:53 13.30105 66.26762 38857 ft 485 kts 141°
2026-05-05 11:54 13.24847 66.31117 38856 ft 486 kts 141°
2026-05-05 11:54 13.19576 66.35480 38861 ft 487 kts 141°
2026-05-05 11:55 13.14296 66.39849 38857 ft 487 kts 141°
2026-05-05 11:55 13.09023 66.44209 38861 ft 487 kts 141°
2026-05-05 11:56 13.03747 66.48569 38857 ft 486 kts 141°
2026-05-05 11:56 12.98479 66.52920 38858 ft 487 kts 141°
2026-05-05 11:57 12.93201 66.57276 38857 ft 487 kts 141°
2026-05-05 11:57 12.87921 66.61632 38852 ft 487 kts 140°
2026-05-05 11:58 12.82634 66.65991 38857 ft 487 kts 140°
2026-05-05 11:58 12.77360 66.70338 38856 ft 487 kts 141°
2026-05-05 11:59 12.72073 66.74693 38861 ft 487 kts 140°
2026-05-05 11:59 12.66790 66.79041 38857 ft 488 kts 140°
2026-05-05 12:00 12.61497 66.83396 38858 ft 487 kts 140°
2026-05-05 12:00 12.56210 66.87744 38863 ft 487 kts 140°
2026-05-05 12:01 12.50928 66.92084 38857 ft 487 kts 140°
2026-05-05 12:01 12.45635 66.96432 38860 ft 488 kts 140°
2026-05-05 12:02 12.40340 67.00779 38852 ft 488 kts 140°
2026-05-05 12:02 12.35076 67.05098 38860 ft 488 kts 140°
2026-05-05 12:03 12.29778 67.09442 38849 ft 488 kts 140°
2026-05-05 12:03 12.24480 67.13785 38863 ft 488 kts 140°
2026-05-05 12:04 12.19182 67.18125 38862 ft 488 kts 140°
2026-05-05 12:04 12.13886 67.22461 38860 ft 488 kts 140°
2026-05-05 12:05 12.08589 67.26796 38863 ft 488 kts 140°
2026-05-05 12:05 12.03292 67.31128 38865 ft 488 kts 140°
2026-05-05 12:06 11.97993 67.35461 38862 ft 488 kts 140°
2026-05-05 12:06 11.92697 67.39790 38857 ft 488 kts 140°
2026-05-05 12:07 11.87397 67.44119 38863 ft 488 kts 140°
2026-05-05 12:07 11.82104 67.48440 38865 ft 488 kts 140°
2026-05-05 12:08 11.76800 67.52768 38859 ft 488 kts 140°
2026-05-05 12:08 11.71501 67.57091 38859 ft 488 kts 140°
2026-05-05 12:09 11.66203 67.61410 38858 ft 488 kts 140°
2026-05-05 12:09 11.60903 67.65729 38861 ft 488 kts 140°
2026-05-05 12:10 11.55599 67.70048 38869 ft 488 kts 140°
2026-05-05 12:10 11.50295 67.74366 38872 ft 488 kts 140°
2026-05-05 12:11 11.44995 67.78678 38869 ft 488 kts 140°
2026-05-05 12:11 11.39684 67.82997 38862 ft 488 kts 140°
2026-05-05 12:12 11.34375 67.87313 38855 ft 488 kts 140°
2026-05-05 12:12 11.29062 67.91629 38862 ft 488 kts 140°
2026-05-05 12:13 11.23752 67.95941 38865 ft 488 kts 140°
2026-05-05 12:13 11.18440 68.00252 38859 ft 488 kts 140°
2026-05-05 12:14 11.13138 68.04553 38856 ft 486 kts 140°
2026-05-05 12:14 11.07858 68.08834 38853 ft 485 kts 140°
2026-05-05 12:15 11.02581 68.13112 38864 ft 485 kts 140°
2026-05-05 12:15 10.97301 68.17389 38866 ft 485 kts 140°
2026-05-05 12:16 10.92024 68.21662 38866 ft 485 kts 141°
2026-05-05 12:16 10.86740 68.25939 38860 ft 485 kts 141°
2026-05-05 12:17 10.81457 68.30212 38860 ft 485 kts 141°
2026-05-05 12:17 10.76179 68.34480 38860 ft 485 kts 141°
2026-05-05 12:18 10.70892 68.38753 38866 ft 485 kts 141°
2026-05-05 12:18 10.65614 68.43017 38866 ft 485 kts 141°
2026-05-05 12:19 10.60330 68.47283 38866 ft 485 kts 141°
2026-05-05 12:19 10.55050 68.51545 38860 ft 485 kts 141°
2026-05-05 12:20 10.49755 68.55816 38856 ft 487 kts 140°
2026-05-05 12:20 10.44433 68.60108 38860 ft 488 kts 140°
2026-05-05 12:21 10.39109 68.64399 38859 ft 489 kts 140°
2026-05-05 12:21 10.33781 68.68691 38857 ft 489 kts 140°
2026-05-05 12:22 10.28457 68.72979 38859 ft 489 kts 140°
2026-05-05 12:22 10.23130 68.77266 38854 ft 489 kts 140°
2026-05-05 12:23 10.17802 68.81554 38854 ft 488 kts 141°
2026-05-05 12:23 10.12484 68.85831 38864 ft 488 kts 141°
2026-05-05 12:24 10.07177 68.90097 38846 ft 486 kts 141°
2026-05-05 12:24 10.01884 68.94350 38856 ft 485 kts 141°
2026-05-05 12:25 9.96594 68.98599 38857 ft 485 kts 141°
2026-05-05 12:25 9.91306 69.02844 38856 ft 485 kts 141°
2026-05-05 12:26 9.86018 69.07087 38858 ft 485 kts 141°
2026-05-05 12:26 9.80723 69.11334 38855 ft 485 kts 141°
2026-05-05 12:27 9.75430 69.15579 38855 ft 485 kts 141°
2026-05-05 12:27 9.70135 69.19824 38852 ft 485 kts 141°
2026-05-05 12:28 9.64848 69.24056 38853 ft 483 kts 141°
2026-05-05 12:28 9.59581 69.28267 38854 ft 482 kts 141°
2026-05-05 12:29 9.54317 69.32477 38856 ft 482 kts 141°
2026-05-05 12:29 9.49048 69.36689 38849 ft 482 kts 141°
2026-05-05 12:30 9.43772 69.40905 38857 ft 484 kts 141°
2026-05-05 12:30 9.38490 69.45124 38852 ft 483 kts 141°
2026-05-05 12:31 9.33214 69.49337 38855 ft 483 kts 141°
2026-05-05 12:31 9.27942 69.53545 38854 ft 483 kts 141°
2026-05-05 12:32 9.23549 69.57050 38849 ft 484 kts 141°
2026-05-05 12:32 9.18247 69.61278 38850 ft 484 kts 141°
2026-05-05 12:33 9.12969 69.65486 38856 ft 483 kts 141°
2026-05-05 12:33 9.07687 69.69695 38852 ft 483 kts 141°
2026-05-05 12:34 9.02404 69.73904 38854 ft 483 kts 141°
2026-05-05 12:34 8.97128 69.78105 38849 ft 483 kts 141°
2026-05-05 12:35 8.91854 69.82304 38854 ft 483 kts 141°
2026-05-05 12:35 8.86572 69.86506 38858 ft 485 kts 140°
2026-05-05 12:36 8.81249 69.90741 38849 ft 487 kts 141°
2026-05-05 12:36 8.75925 69.94974 38851 ft 487 kts 141°
2026-05-05 12:37 8.70608 69.99201 38847 ft 486 kts 141°
2026-05-05 12:37 8.65288 70.03427 38845 ft 486 kts 141°
2026-05-05 12:38 8.59970 70.07650 38842 ft 486 kts 141°
2026-05-05 12:38 8.54657 70.11868 38852 ft 486 kts 140°
2026-05-05 12:39 8.49301 70.16120 38842 ft 492 kts 140°
2026-05-05 12:39 8.43909 70.20399 38846 ft 493 kts 140°
2026-05-05 12:40 8.38503 70.24685 38842 ft 494 kts 140°
2026-05-05 12:40 8.33097 70.28971 38842 ft 494 kts 140°
2026-05-05 12:41 8.27680 70.33263 38847 ft 495 kts 140°
2026-05-05 12:41 8.22269 70.37550 38843 ft 495 kts 140°
2026-05-05 12:42 8.16868 70.41827 38846 ft 492 kts 140°
2026-05-05 12:42 8.11489 70.46085 38849 ft 491 kts 140°
2026-05-05 12:43 8.06115 70.50338 38842 ft 491 kts 140°
2026-05-05 12:43 8.00741 70.54590 38844 ft 491 kts 140°
2026-05-05 12:44 7.95375 70.58834 38839 ft 490 kts 140°
2026-05-05 12:44 7.90015 70.63071 38842 ft 489 kts 140°
2026-05-05 12:45 7.84657 70.67305 38839 ft 489 kts 140°
2026-05-05 12:45 7.79313 70.71527 38834 ft 487 kts 140°
2026-05-05 12:46 7.73980 70.75739 38843 ft 487 kts 140°
2026-05-05 12:46 7.68641 70.79954 38843 ft 487 kts 140°
2026-05-05 12:47 7.63304 70.84167 38843 ft 487 kts 140°
2026-05-05 12:47 7.57969 70.88376 38843 ft 487 kts 140°
2026-05-05 12:48 7.52646 70.92575 38843 ft 486 kts 140°
2026-05-05 12:48 7.47324 70.96769 38843 ft 485 kts 140°
2026-05-05 12:49 7.42006 71.00955 38846 ft 485 kts 140°
2026-05-05 12:49 7.36643 71.05175 38832 ft 485 kts 140°
2026-05-05 12:50 7.31333 71.09353 38843 ft 485 kts 140°
2026-05-05 12:50 7.25981 71.13563 38842 ft 485 kts 140°
2026-05-05 12:51 7.20657 71.17749 38842 ft 485 kts 140°
2026-05-05 12:51 7.15335 71.21933 38839 ft 485 kts 140°
2026-05-05 12:52 7.10008 71.26118 38837 ft 485 kts 140°
2026-05-05 12:52 7.04684 71.30301 38843 ft 485 kts 140°
2026-05-05 12:53 6.99357 71.34484 38845 ft 485 kts 140°
2026-05-05 12:53 6.94033 71.38664 38847 ft 486 kts 140°
2026-05-05 12:54 6.86042 71.44935 38845 ft 485 kts 140°
2026-05-05 12:55 6.80716 71.49114 38847 ft 485 kts 140°
2026-05-05 12:55 6.75395 71.53286 38848 ft 485 kts 140°
2026-05-05 12:56 6.70069 71.57463 38851 ft 485 kts 140°
2026-05-05 12:56 6.64753 71.61629 38851 ft 484 kts 140°
2026-05-05 12:57 6.59446 71.65788 38849 ft 484 kts 140°
2026-05-05 12:57 6.54140 71.69945 38846 ft 484 kts 140°
2026-05-05 12:58 6.48835 71.74100 38852 ft 483 kts 140°
2026-05-05 12:58 6.43537 71.78247 38846 ft 482 kts 140°
2026-05-05 12:59 6.38246 71.82389 38849 ft 482 kts 140°
2026-05-05 12:59 6.32995 71.86496 38849 ft 482 kts 140°
2026-05-05 13:00 6.25068 71.92698 38853 ft 482 kts 140°
2026-05-05 13:01 6.14452 72.00999 38856 ft 482 kts 140°
2026-05-05 13:01 6.09191 72.05111 38851 ft 481 kts 140°
2026-05-05 13:02 6.03908 72.09239 38844 ft 481 kts 140°
2026-05-05 13:02 5.98587 72.13396 38847 ft 481 kts 140°
2026-05-05 13:03 5.93307 72.17520 38849 ft 481 kts 140°
2026-05-05 13:03 5.88021 72.21647 38847 ft 481 kts 140°
2026-05-05 13:04 5.82734 72.25774 38568 ft 481 kts 141°
2026-05-05 13:04 5.80133 72.27804 38198 ft 477 kts 141°
2026-05-05 13:04 5.77529 72.29836 37630 ft 473 kts 141°
2026-05-05 13:05 5.74935 72.31860 37010 ft 471 kts 141°
2026-05-05 13:05 5.72356 72.33873 36393 ft 470 kts 141°
2026-05-05 13:05 5.69772 72.35889 35749 ft 469 kts 141°
2026-05-05 13:05 5.67162 72.37925 35087 ft 469 kts 141°
2026-05-05 13:06 5.64619 72.39908 34402 ft 470 kts 141°
2026-05-05 13:06 5.62031 72.41927 33636 ft 472 kts 141°
2026-05-05 13:06 5.59401 72.43978 32818 ft 474 kts 142°
2026-05-05 13:06 5.56793 72.46011 32043 ft 475 kts 142°
2026-05-05 13:07 5.54177 72.48051 31231 ft 477 kts 142°
2026-05-05 13:07 5.51556 72.50093 30430 ft 479 kts 142°
2026-05-05 13:07 5.48923 72.52146 29546 ft 481 kts 142°
2026-05-05 13:07 5.46270 72.54213 28651 ft 482 kts 142°
2026-05-05 13:08 5.43634 72.56267 28034 ft 477 kts 142°
2026-05-05 13:08 5.41025 72.58300 27422 ft 473 kts 143°
2026-05-05 13:08 5.38439 72.60315 26813 ft 468 kts 143°
2026-05-05 13:08 5.35879 72.62310 26204 ft 464 kts 143°
2026-05-05 13:09 5.33342 72.64286 25605 ft 461 kts 143°
2026-05-05 13:09 5.30818 72.66252 24993 ft 457 kts 143°
2026-05-05 13:09 5.28308 72.68206 24400 ft 455 kts 143°
2026-05-05 13:09 5.25821 72.70142 23805 ft 452 kts 143°
2026-05-05 13:10 5.23341 72.72073 23153 ft 450 kts 143°
2026-05-05 13:10 5.21700 72.73350 22722 ft 448 kts 144°
2026-05-05 13:10 5.19249 72.75258 22109 ft 444 kts 143°
2026-05-05 13:10 5.16826 72.77144 21502 ft 440 kts 143°
2026-05-05 13:11 5.14417 72.79019 20921 ft 436 kts 143°
2026-05-05 13:11 5.12029 72.80877 20328 ft 433 kts 143°
2026-05-05 13:11 5.09656 72.82725 19718 ft 430 kts 143°
2026-05-05 13:11 5.07301 72.84558 19122 ft 428 kts 144°
2026-05-05 13:12 5.04926 72.86404 18505 ft 425 kts 144°
2026-05-05 13:12 5.02596 72.88217 17858 ft 424 kts 143°
2026-05-05 13:12 5.00268 72.90027 17203 ft 421 kts 144°
2026-05-05 13:12 4.97967 72.91817 16584 ft 417 kts 143°
2026-05-05 13:13 4.95687 72.93590 15969 ft 414 kts 144°
2026-05-05 13:13 4.93416 72.95356 15354 ft 411 kts 144°
2026-05-05 13:13 4.91165 72.97105 14730 ft 409 kts 144°
2026-05-05 13:13 4.88921 72.98849 14106 ft 407 kts 143°
2026-05-05 13:14 4.86720 73.00563 13479 ft 405 kts 143°
2026-05-05 13:14 4.84614 73.02487 12716 ft 406 kts 133°
2026-05-05 13:14 4.82778 73.04630 12073 ft 403 kts 130°
2026-05-05 13:14 4.81007 73.06786 11500 ft 397 kts 130°
2026-05-05 13:15 4.79256 73.08912 10895 ft 394 kts 130°
2026-05-05 13:15 4.77542 73.10986 10689 ft 377 kts 130°
2026-05-05 13:15 4.75910 73.12958 10562 ft 359 kts 131°
2026-05-05 13:15 4.74356 73.14832 10441 ft 342 kts 131°
2026-05-05 13:16 4.72867 73.16625 10316 ft 326 kts 131°
2026-05-05 13:16 4.71451 73.18330 10185 ft 312 kts 131°
2026-05-05 13:16 4.70087 73.19970 10052 ft 300 kts 131°
2026-05-05 13:16 4.68774 73.21550 9869 ft 292 kts 131°
2026-05-05 13:17 4.67452 73.23137 9523 ft 303 kts 131°
2026-05-05 13:17 4.66091 73.24771 9156 ft 306 kts 131°
2026-05-05 13:17 4.64732 73.26405 8802 ft 305 kts 131°
2026-05-05 13:17 4.63375 73.28036 8448 ft 304 kts 131°
2026-05-05 13:18 4.62022 73.29663 8128 ft 302 kts 131°
2026-05-05 13:18 4.60681 73.31275 7785 ft 301 kts 131°
2026-05-05 13:18 4.59342 73.32884 7436 ft 299 kts 131°
2026-05-05 13:18 4.58014 73.34481 7122 ft 298 kts 131°
2026-05-05 13:19 4.56703 73.36057 6882 ft 289 kts 131°
2026-05-05 13:19 4.55444 73.37570 6696 ft 277 kts 131°
2026-05-05 13:19 4.54225 73.39036 6446 ft 271 kts 131°
2026-05-05 13:19 4.53025 73.40477 6097 ft 269 kts 131°
2026-05-05 13:20 4.51829 73.41913 5718 ft 267 kts 130°
2026-05-05 13:20 4.50641 73.43340 5368 ft 266 kts 130°
2026-05-05 13:20 4.49463 73.44756 5015 ft 264 kts 130°
2026-05-05 13:20 4.48293 73.46162 4687 ft 261 kts 130°
2026-05-05 13:21 4.47141 73.47547 4385 ft 257 kts 131°
2026-05-05 13:21 4.45998 73.48906 4082 ft 253 kts 132°
2026-05-05 13:21 4.44708 73.50102 3829 ft 252 kts 143°
2026-05-05 13:21 4.43315 73.51169 3598 ft 252 kts 145°
2026-05-05 13:22 4.41912 73.52214 3377 ft 251 kts 146°
2026-05-05 13:22 4.40409 73.53076 3143 ft 248 kts 162°
2026-05-05 13:22 4.38751 73.53370 2933 ft 237 kts 182°
2026-05-05 13:22 4.37134 73.53351 2740 ft 228 kts 186°
2026-05-05 13:23 4.35588 73.53248 2595 ft 218 kts 189°
2026-05-05 13:23 4.34127 73.53085 2465 ft 203 kts 189°
2026-05-05 13:23 4.32771 73.53081 2251 ft 188 kts 180°
2026-05-05 13:23 4.31507 73.53106 2013 ft 177 kts 185°
2026-05-05 13:24 4.30292 73.53092 1787 ft 174 kts 185°
2026-05-05 13:24 4.29088 73.53094 1557 ft 170 kts 184°
2026-05-05 13:24 4.27946 73.53097 1347 ft 160 kts 185°
2026-05-05 13:24 4.26858 73.53095 1142 ft 153 kts 185°
2026-05-05 13:25 4.25798 73.53095 953 ft 152 kts 184°
2026-05-05 13:25 4.24733 73.53100 803 ft 154 kts 183°
2026-05-05 13:25 4.23669 73.53112 600 ft 152 kts 185°
2026-05-05 13:25 4.22621 73.53106 404 ft 150 kts 186°
2026-05-05 13:26 4.21573 73.53100 206 ft 151 kts 180°
2026-05-05 13:26 4.20513 73.53102 23 ft 151 kts 180°
2026-05-05 13:26 4.19623 73.53101 18 ft 91 kts 180°
2026-05-05 13:26 4.19220 73.53101 19 ft 46 kts 180°
2026-05-05 13:27 4.18937 73.53101 20 ft 47 kts 180°
2026-05-05 13:27 4.18631 73.53103 20 ft 31 kts 179°
2026-05-05 13:27 4.18553 73.53065 18 ft 11 kts 255°
2026-05-05 13:27 4.18547 73.52975 18 ft 15 kts 268°
2026-05-05 13:28 4.18496 73.52913 18 ft 11 kts 229°
2026-05-05 13:28 4.18435 73.52861 18 ft 13 kts 189°
2026-05-05 13:28 4.18338 73.52860 18 ft 9 kts 180°
2026-05-05 13:28 4.18314 73.52829 18 ft 7 kts 258°
2026-05-05 13:29 4.18313 73.52795 18 ft 0 kts 269°